Location: Unspecified
(50.1700°N, 6.8600°E)
Time: 08:39:39
(UTC+00:00)

N. Korean satellite - Pass Details

Date: 30 March 2019
Orbit: 457 x 508 km, 97.2° (Epoch: 24 April)

Event Time Altitude Azimuth Distance (km) Brightness Sun altitude
Rises 04:26:12 0° 34° (NE) 2,554 11.1 -8.4°
Drops below altitude 10° 04:30:38 10° 86° (E) 1,683 10.9 -7.7°
Maximum altitude 04:30:41 10° 87° (E) 1,683 10.9 -7.7°
Sets 04:35:10 0° 140° (SE) 2,572 10.6 -7.0°
